Regional Weather Roundup
Issued by NWS Charleston, WV

Home | Current Version | Previous Version | Graphics & Text | Print | Product List | Glossary On
Versions: 1 2 3 4 5 6 7 8 9 10 11 12 13 14 15 16 17 18 19 20 21 22 23 24 25 26 27 28 29 30 31 32 33 34 35 36 37 38 39 40 41 42 43 44 45 46 47 48
000
ASUS41 KRLX 140310
RWRRLX
West Virginia Regional Weather Roundup
National Weather Service Charleston WV
1100 PM EDT SAT SEP 13 2014

Note: "fair" indicates few or no clouds below 12,000 feet with no
significant weather and/or obstructions to visibility.

WVZ003-140400-
Northern Panhandle of West Virginia

CITY           SKY/WX    TMP DP  RH WIND       PRES   REMARKS
WHEELING       CLEAR     51  45  79 CALM      30.32R
$$

WVZ009-140400-
Northwest West Virginia

CITY           SKY/WX    TMP DP  RH WIND       PRES   REMARKS
PARKERSBURG    CLEAR     49  47  93 CALM      30.34R
$$

WVZ006-140400-
Western West Virginia

CITY           SKY/WX    TMP DP  RH WIND       PRES   REMARKS
HUNTINGTON     PTCLDY    51  51 100 CALM      30.30R
$$

WVZ015-140400-
West Central West Virginia

CITY           SKY/WX    TMP DP  RH WIND       PRES   REMARKS
CHARLESTON     NOT AVBL
$$

WVZ031-140400-
North Central West Virginia

CITY           SKY/WX    TMP DP  RH WIND       PRES   REMARKS
CLARKSBURG     MOCLDY    53  48  83 CALM      30.31R
MORGANTOWN     CLEAR     53  47  79 CALM      30.32R
$$

WVZ035-042-045-140400-
South Central West Virginia

CITY           SKY/WX    TMP DP  RH WIND       PRES   REMARKS
BECKLEY        CLOUDY    52  50  93 CALM      30.31S
BLUEFIELD      FOG       53  50  89 N3        30.31F VSB 1/4
LEWISBURG      MOCLDY    51  49  90 CALM      30.30F
$$

WVZ047-140400-
Northern Mountains of West Virginia

CITY           SKY/WX    TMP DP  RH WIND       PRES   REMARKS
ELKINS         PTCLDY    51  47  86 CALM      30.31R
$$

WVZ052-140400-
Eastern Panhandle of West Virginia

CITY           SKY/WX    TMP DP  RH WIND       PRES   REMARKS
MARTINSBURG    CLEAR     60  47  61 N7        30.26R
PETERSBURG     CLOUDY    60  51  70 CALM      30.29S
$$


USA.gov is the U.S. government's official web portal to all federal, state and local government web resources and services.